www.pogodaiklimat.ru

Погода и климат >> Архив погоды >> Россия >> Якутия >> Столб Остров


ПОГОДА на Столб Острове

  • Прогноз погоды на Столб Острове
  • Монитор погоды на Столб Острове
  • Климат города

АРХИВ ПОГОДЫ на Столб Острове

Время (UTC), дата Ветер
(напр.,м/с)
 
Видим.   Явления Облачность Т
(С)
Тd
(С)
f
(%)
Тe
(С)
Тes
(С)
Комфортность P
(гПа)
Po
(гПа)
Тmin
(С)
Tmax
(С)
R
(мм)
R24
(мм)
S
(см)
21 10.10 СЗ 6 10 км в посл. час ливневой снег {метель} 10/10 300 м
[Cb cap]
+0.6 -0.2 94 -6 -6 1004.0 1001.6
00 11.10 СЗ 5 10 км в посл. час ливневой снег {метель} 10/10 300 м
[Cb cap]
+0.6 -0.2 94 -6 -6 1004.3 1001.9 -0.5 1 1
03 11.10 СЗ 7 10 км в посл. час ливневой снег {метель} 10/10 300 м
[Cb cap]
+0.7 -0.1 94 -6 -6 1004.9 1002.5
06 11.10 СЗ 5 10 км в посл. час ливневой снег {метель} 10/10 300 м
[Cb cap]
+0.5 -0.3 94 -6 -6 1006.0 1003.5
09 11.10 СЗ 5 10 км в посл. час ливневой снег {метель} 10/10 300 м
[Cb cap]
+0.5 -0.3 94 -6 -6 1006.9 1004.4
12 11.10 СЗ 4 10 км в посл. час ливневой снег {метель} 10/10 300 м
[Cb cap]
+0.3 -0.5 94 -5 -5 1005.4 1005.4 +1.2
15 11.10 СЗ 3 10 км слабый ливневой снег 10/10 300 м
[Cb cap]
+0.1 -0.8 94 -5 -5 1009.1 1006.6
18 11.10 СЗ 3 10 км слабый ливневой снег 10/10 300 м
[Cb cap]
+0.4 -0.4 94 -4 -4 1010.4 1007.9
21 11.10 З 2 10 км слабый ливневой снег 10/10 300 м
[Cb cap]
+0.5 -0.3 94 -3 -3 1011.5 1009.0
00 12.10 ЮЗ 2 10 км слабый ливневой снег 10/10 300 м
[Cb cap]
-0.5 -1.4 94 -4 -4 1012.4 1009.9 -0.6 1 <0.5
03 12.10 СЗ 4 20 км {ливн. осадки} 10/4 300 м
[Cb cap Ac As]
-0.4 -1.6 92 -6 -6 1013.5 1011.0
06 12.10 З 4 20 км {ливн. осадки} 10/10 300 м
[Cb cap]
-0.8 -2.0 92 -7 -7 1014.7 1012.2
09 12.10 З 4 20 км 10/10 300 м
[Cb cap]
-0.4 -1.6 92 -6 -6 1016.0 1013.5
12 12.10 ЮЗ 3 20 км {ливн. осадки} 10/10 300 м
[Cb cap]
-1.2 -2.4 92 -6 -6 1017.1 1014.6 +0.4 0.2
15 12.10 ЮЗ 5 20 км 10/10 300 м
[Cb cap]
-1.1 -2.0 94 -8 -8 1017.6 1015.1
18 12.10 ЮЗ 5 20 км 10/10 300 м
[Cb cap]
-0.8 -1.7 94 -7 -7 1018.4 1015.9
21 12.10 штиль 0 20 км 10/10 300 м
[Sc]
-1.2 -2.2 93 -2 -2 1019.4 1016.9
00 13.10 ЮЗ 1 50 км 10/10 300 м
[Cb calv]
-1.2 -2.2 93 -3 -3 1020.2 1017.7 -1.5 3
03 13.10 Ю 1 10 км слабый ливневой снег 10/10 300 м
[Cb cap]
-0.6 -1.3 95 -3 -3 1020.9 1018.4
06 13.10 З 3 10 км слабый ливневой снег 10/10 300 м
[Cb cap]
-0.4 -1.3 94 -5 -5 1021.9 1019.4
09 13.10 З 3 20 км {ливн. осадки} 10/10 300 м
[Cb cap]
-1.0 -1.9 94 -6 -6 1022.8 1020.3
12 13.10 ЮЗ 2 10 км слабый ливневой снег 10/10 300 м
[Cb cap]
-1.8 -3.4 89 -6 -6 1023.4 1020.9 -0.1 0.2
15 13.10 Ю 2 10 км слабый ливневой снег 10/10 300 м
[Cb cap]
-2.0 -2.9 94 -6 -6 1023.5 1021.0
18 13.10 Ю 3 10 км 10/10 300 м
[Cb cap]
-2.4 -3.6 91 -8 -8 1023.5 1021.0
21 13.10 ЮВ 4 10 км {ливн. осадки} 10/10 300 м
[Cb cap]
-3.6 -5.1 89 -10 -10 1023.6 1021.1
00 14.10 Ю 6 50 км 4/4 300 м
[Cb cap]
-4.9 -6.6 88 -13 -13 1023.5 1020.9
03 14.10 Ю 6 50 км 3/3 300 м
[Cb cap]
-4.8 -9.2 71 -12 -12 1022.8 1020.2
06 14.10 Ю 11-12
{14}
50 км 8/0
[Ac As Ci ing]
-4.0 -8.1 73 -14 -14 1021.2 1018.7
09 14.10 Ю 11-12
{14}
50 км 9/8 600 м
[Sc Ac As]
-3.6 -7.2 76 -13 -13 1019.6 1017.1
12 14.10 Ю 12-14
{18}
50 км 10/10 600 м
[Sc]
-3.8 -7.1 78 -14 -14 1017.4 1014.9 -3.0
15 14.10 Ю 9-12
{16}
10 км слабый ливневой снег {метель} 10/10 300 м
[Cb cap]
-3.8 -5.0 91 -13 -13 1016.3 1013.8
18 14.10 Ю 6
{15}
20 км позёмок {ливн. осадки, метель} 10/10 300 м
[Cb cap]
-2.8 -4.4 89 -10 -10 1015.8 1013.3
21 14.10 Ю 7 50 км {метель} 10/10 300 м
[Cb cap]
-1.1 -2.7 89 -9 -9 1016.1 1013.6
00 15.10 Ю 10-12
{13}
20 км в посл. час ливневой снег 10/10 300 м
[Cb cap]
-1.6 -3.0 90 -10 -10 1015.2 1012.7 -4.2 5 7
03 15.10 Ю 14-15
{19}
10 км метель {ливн. осадки} 10/5 300 м
[Cb cap Ac und]
-1.9 -3.1 91 -12 -12 1012.2 1009.7
06 15.10 Ю 11-13
{22}
20 км позёмок {метель} 10/3 1000 м
[Sc Ac und Cc]
-2.2 -4.4 85 -11 -11 1012.6 1010.1
09 15.10 Ю 10-12
{18}
50 км позёмок {метель} 10/1 1000 м
[Sc Ac As]
-1.2 -3.8 82 -10 -10 1012.5 1010.0
12 15.10 Ю 10-13
{17}
50 км {метель} ясно -1.0 -4.2 79 -9 -9 1013.5 1011.0 -0.6 1
15 15.10 Ю 8-10
{15}
50 км ясно -1.6 -5.0 78 -9 -9 1013.8 1011.3
18 15.10 Ю 8
{12}
50 км ясно -2.3 -5.5 79 -10 -10 1013.8 1011.3
21 15.10 Ю 8
{12}
50 км 1/0
[Ac trans]
-2.6 -6.3 76 -11 -11 1013.3 1010.8
00 16.10 Ю 8-10
{12}
50 км 4/0
[Ac trans Ci fib]
-2.6 -7.8 67 -10 -10 1012.2 1009.7 -2.9 9
03 16.10 Ю 9-11
{14}
50 км 3/0
[Ci sp]
-2.9 -7.4 71 -11 -11 1011.4 1008.9
06 16.10 Ю 11-13
{14}
50 км 3/0
[Ci fib]
-2.6 -6.3 76 -12 -12 1009.5 1007.0
09 16.10 Ю 11-12
{13}
50 км 8/0
[Ci fib]
-3.2 -7.5 72 -12 -12 1008.9 1006.4
12 16.10 Ю 2
{14}
50 км 10/0
[Ci fib]
-3.9 -8.4 71 -8 -8 1008.4 1005.9 -2.3
15 16.10 Ю 3 50 км 10/0
[Ci fib]
-4.1 -8.3 73 -9 -9 1007.0 1004.5
18 16.10 Ю 6 50 км 10/0
[Ci fib]
-4.4 -7.9 77 -12 -12 1005.2 1002.7
21 16.10 Ю 6 50 км 10/0
[Ci fib]
-3.9 -8.0 73 -11 -11 1004.0 1001.5
00 17.10 Ю 6 50 км 10/4 600 м
[Cb cap Ci fib]
-4.3 -8.1 75 -12 -12 1003.4 1000.9 -4.6 9
03 17.10 ЮЗ 6 50 км 10/10 600 м
[Cb cap]
-3.9 -6.8 80 -11 -11 1003.6 1001.1
06 17.10 ЮЗ 7 10 км слабый ливневой снег 10/10 600 м
[Cb cap]
-3.6 -6.5 80 -12 -12 1004.1 1001.6
09 17.10 ЮЗ 7 10 км слабый ливневой снег 10/10 600 м
[Cb cap]
-3.4 -6.2 81 -11 -11 1005.4 1002.9
12 17.10 ЮЗ 7 10 км слабый ливневой снег 10/10 600 м
[Cb cap]
-3.3 -5.4 85 -11 -11 1006.3 1003.8 -3.0 1
15 17.10 ЮЗ 5
{12}
10 км слабый ливневой снег 10/10 600 м
[Cb cap]
-3.0 -6.1 79 -10 -10 1006.8 1004.3

 

Местоположение метеостанции Столб Остров (Якутия, Россия): широта 72.40 долгота 126.30 высота над уровнем моря 20 м.

В архиве по умолчанию представлена погода на Столб Острове за последнюю неделю. Архивные данные за месяц целиком и за предыдущие месяцы, начиная с января 2011 года, Вы можете получить, выбрав интересующий диапазон дат из раскрывающегося списка и нажав кнопку "Ввод!".


*Определитесь, кто Вы:
робот инопланетянин человек

Внимание! Время в таблицах - всемирное. Для получения местного времени необходимо прибавить поправку, которая на Столб Острове равна 9 ч.

Смотрите также архив погоды в соседних городах и на ближайших метеорологических станциях:

Погода на Мысе Быков (Якутия, Россия) (105 км)
Погода в Тюмяти (Якутия, Россия) (109 км)
Погода в Тикси (Якутия, Россия) (128 км)
Погода в Кюсюре (Якутия, Россия) (195 км)
Погода в Усть-Оленеке (Якутия, Россия) (225 км)
Погода в Юбилейной (Якутия, Россия) (392 км)
Погода в Джарджане (Якутия, Россия) (417 км)
Погода в Саскылахе (Якутия, Россия) (421 км)
Погода в Усть-Куйге (Якутия, Россия) (426 км)
Погода в Анабаре (Якутия, Россия) (430 км)

Пояснения к столбцам:

Ветер - указаны скорость ветра в м/с - средняя за 10 мин, порывы в срок и между сроками (в фигурных скобках) и направление, откуда дует ветер: С - северный, СВ - северо-восточный, В - восточный, ЮВ - юго-восточный, Ю - южный, ЮЗ - юго-западный, З - западный, СЗ - северо-западный.
Видимость - горизонтальная дальность видимости в метрах или километрах. При видимости от 1 до 10 км при отсутствии осадков обычно наблюдается дымка, при ухудшении видимости до 1 км и менее - туман. В сухую погоду видимость может ухудшаться дымом, пылью или мглою.
Явления - указаны атмосферные явления, наблюдавшиеся в срок или в последний час перед сроком; фигурными скобками обозначены явления, наблюдавшиеся между сроками (за 1-3 часа до срока); квадратными скобками обозначены град или гололедные отложения с указанием их диаметра в мм.
Облачность - указаны через наклонную черту общая и нижняя облачность в баллах и высота нижней границы облаков в метрах; квадратными скобками обозначены формы облаков: Ci - перистые, Cs - перисто-слоистые, Cc - перисто-кучевые, Ac - высококучевые, As - высокослоистые, Sc - слоисто-кучевые, Ns - слоисто-дождевые, Cu - кучевые, Cb - кучево-дождевые. Подробнее классификацию облаков см. в Атласе облаков (PDF).
T - Температура воздуха - температура, измеренная на высоте 2 м над землей.
Td - Температура точки росы - температура, при понижении до которой содержащийся в воздухе водяной пар достигнет насыщения.
f - Относительная влажность воздуха - влажноcть воздуха, измеренная на высоте 2 м над землей.
Te - Эффективная температура - температура, которую ощущает одетый по сезону человек в тени. Характеристика душности погоды. При расчете учитывается влияние влажности воздуха и скорости ветра на теплоощущения человека.
Tes - Эффективная температура на солнце - температура, которую ощущает человек, с поправкой на солнечный нагрев. Характеристика знойности погоды. Зависит от высоты солнца над горизонтом, облачности и скорости ветра. Ночью, в пасмурную погоду, а также при ветре 12 м/с и более поправка равна нулю.
P - Атмосферное давление - приведенное к уровню моря атмосферное давление.
Po - Атмосферное давление - измеренное на уровне метеостанции атмосферное давление.
Tmin - Минимальная температура - минимум температуры воздуха на высоте 2 м над землей.
Tmax - Максимальная температура - максимум температуры воздуха на высоте 2 м над землей.
R - Количество осадков - Количество выпавших осадков за период времени, мм. При наведении курсора мыши на число - период времени, за который выпало указанное количество осадков.
R24 - Количество осадков - Количество выпавших осадков за 24 часа, мм.
S - Снежный покров - Высота снежного покрова, см. При наведении курсора мыши на число - состояние снежного покрова и степень покрытия местности в баллах.